This is the latest recevied weather packets stored in our database for station/object OSTR-WX. If no packets are shown the sender has not sent any weather packets the latest 10 day(s).
| Time | Temp. | Humidity | Pressure | Rain* | Wind** | Luminosity | Snow |
|---|---|---|---|---|---|---|---|
| 1777541049 | 11.67° C | 42% | 1031.5 hPa | - | - | - | - |
| 1777541047 | 11.67° C | 42% | 1031.5 hPa | - | - | - | - |
| 1777540093 | 11.67° C | 44% | 1031.6 hPa | - | - | - | - |
| 1777540093 | 11.67° C | 44% | 1031.6 hPa | - | - | - | - |
| 1777538176 | 10.56° C | 48% | 1032.1 hPa | - | - | - | - |
| 1777537221 | 10° C | 46% | 1032.3 hPa | - | - | - | - |
| 1777537219 | 10° C | 46% | 1032.3 hPa | - | - | - | - |
| 1777536268 | 9.44° C | 50% | 1032.4 hPa | - | - | - | - |
| 1777536265 | 9.44° C | 50% | 1032.4 hPa | - | - | - | - |
| 1777536262 | 9.44° C | 50% | 1032.4 hPa | - | - | - | - |
| 1777534354 | 7.78° C | 56% | 1032.6 hPa | - | - | - | - |
| 1777534349 | 7.78° C | 56% | 1032.6 hPa | - | - | - | - |
| 1777534348 | 7.78° C | 56% | 1032.6 hPa | - | - | - | - |
| 1777533391 | 6.67° C | 60% | 1032.8 hPa | - | - | - | - |
| 1777532434 | 6.11° C | 62% | 1033 hPa | - | - | - | - |
| 1777531484 | 4.44° C | 72% | 1033.4 hPa | - | - | - | - |
| 1777531477 | 4.44° C | 72% | 1033.4 hPa | - | - | - | - |
| 1777530520 | 2.78° C | 77% | 1033.8 hPa | - | - | - | - |
| 1777529570 | 1.67° C | 80% | 1033.9 hPa | - | - | - | - |
| 1777529563 | 1.67° C | 80% | 1033.9 hPa | - | - | - | - |
| 1777528614 | 0.56° C | 83% | 1034 hPa | - | - | - | - |
| 1777528606 | 0.56° C | 83% | 1034 hPa | - | - | - | - |
| 1777527649 | -0.56° C | 85% | 1034.1 hPa | - | - | - | - |
| 1777526692 | -1.67° C | 87% | 1034.3 hPa | - | - | - | - |
| 1777525736 | -2.78° C | 88% | 1034.4 hPa | - | - | - | - |
* Rain since midnight (hover to see other rain measurements)
** Current wind speed in m/s (hover to see current wind gust speed)